Rochester, NH

8:00 PM EDT on April 29, 2017 (GMT -0400)
Skyhaven

Weather History for KDAW - January, 2014

Change the Weather History Date:

Saturday, January 18, 2014

  Actual Average (KPSM) Record (KPSM)
Temperature  
Mean Temperature 30 °F -  
Max Temperature 33 °F 28 °F 60 °F (1990)
Min Temperature 27 °F 12 °F -14 °F (1974)
Degree Days  
Heating Degree Days 35    
Moisture  
Dew Point 27 °F    
Average Humidity 88    
Maximum Humidity 96    
Minimum Humidity 73    
Precipitation  
Precipitation 0.39 in - - ()
Sea Level Pressure  
Sea Level Pressure 29.72 in    
Wind  
Wind Speed 5 mph (North)    
Max Wind Speed 10 mph    
Max Gust Speed -    
Visibility 4 miles    
Events Fog , Snow    
Averages and records for this station are not official NWS values.
T = Trace of Precipitation, MM = Missing Value Source: NWS Daily Summary

Daily Weather History Graph

Daily Weather History Graph

Search for Another Location

Airport or City:

Trip Planner

Search our weather history database for the weather conditions in past years. The results will help you decide how hot, cold, wet, or windy it might be!

Date:

Astronomy

Jan. 18, 2014 Rise Set
Actual Time 7:11 AM EST 4:37 PM EST
Civil Twilight 6:39 AM EST 5:08 PM EST
Nautical Twilight 6:04 AM EST 5:43 PM EST
Astronomical Twilight 5:30 AM EST 6:17 PM EST
Moon 7:22 PM EST (1/18) 8:04 AM EST (1/18)
Length of Visible Light 10h 28m
Length of Day
9h 26m
Waning Gibbous, 94% of the Moon is Illuminated
Jan 18
Waning Gibbous
Jan 24
Last Quarter
Jan 30
New
Feb 6
First Quarter
Feb 14
Full

Hourly Weather History & Observations

Time (EST) Temp. Windchill Dew Point Humidity Pressure Visibility Wind Dir Wind Speed Gust Speed Precip Events Conditions
12:51 AM 28.9 °F - 23.0 °F 78% 29.90 in 10.0 mi Calm Calm - N/A   Clear
1:51 AM 28.0 °F - 23.0 °F 81% 29.89 in 10.0 mi Calm Calm - N/A   Clear
2:51 AM 30.0 °F - 23.0 °F 75% 29.90 in 10.0 mi Calm Calm - N/A   Mostly Cloudy
3:51 AM 28.9 °F - 24.1 °F 82% 29.88 in 10.0 mi Calm Calm - N/A   Scattered Clouds
4:51 AM 27.0 °F 23.0 °F 24.1 °F 89% 29.88 in 10.0 mi NNW 3.5 mph - N/A   Scattered Clouds
5:51 AM 28.0 °F 24.2 °F 24.1 °F 85% 29.86 in 10.0 mi NNW 3.5 mph - N/A   Overcast
6:51 AM 28.0 °F 21.7 °F 24.1 °F 85% 29.84 in 10.0 mi NNW 5.8 mph - N/A   Overcast
7:51 AM 28.9 °F 25.2 °F 23.0 °F 78% 29.81 in 10.0 mi North 3.5 mph - N/A   Overcast
8:51 AM 30.0 °F 25.2 °F 24.1 °F 79% 29.79 in 10.0 mi North 4.6 mph - N/A   Overcast
9:04 AM 30.9 °F 26.2 °F 24.1 °F 76% 29.80 in 10.0 mi North 4.6 mph - N/A   Overcast
9:22 AM 30.9 °F 25.2 °F 24.1 °F 76% 29.80 in 10.0 mi North 5.8 mph - N/A   Overcast
9:51 AM 32.0 °F 26.4 °F 24.1 °F 73% 29.81 in 10.0 mi North 5.8 mph - N/A   Overcast
10:51 AM 33.1 °F 26.9 °F 26.1 °F 75% 29.78 in 2.0 mi North 6.9 mph - 0.00 in Snow Light Snow
11:17 AM 32.0 °F 26.4 °F 28.0 °F 85% 29.76 in 1.0 mi North 5.8 mph - 0.01 in Snow Light Snow
11:51 AM 32.0 °F 25.6 °F 28.9 °F 88% 29.73 in 1.0 mi North 6.9 mph - 0.02 in Snow Light Snow
12:15 PM 32.0 °F 26.4 °F 28.9 °F 88% 29.72 in 0.5 mi North 5.8 mph - 0.01 in Fog , Snow Snow
12:35 PM 32.0 °F 26.4 °F 30.0 °F 92% 29.70 in 0.2 mi North 5.8 mph - 0.04 in Fog , Snow Heavy Snow
12:42 PM 32.0 °F 24.8 °F 28.9 °F 88% 29.69 in 0.2 mi North 8.1 mph - 0.06 in Fog , Snow Heavy Snow
12:51 PM 30.9 °F 24.3 °F 28.9 °F 92% 29.68 in 0.2 mi North 6.9 mph - 0.08 in Fog , Snow Heavy Snow
1:04 PM 30.9 °F 24.3 °F 30.0 °F 96% 29.67 in 0.2 mi NNE 6.9 mph - 0.02 in Fog , Snow Heavy Snow
1:25 PM 32.0 °F 24.2 °F 30.0 °F 92% 29.66 in 0.5 mi NNE 9.2 mph - 0.06 in Fog , Snow Snow
1:51 PM 32.0 °F 25.6 °F 30.0 °F 92% 29.66 in 0.5 mi North 6.9 mph - 0.08 in Fog , Snow Snow
2:25 PM 32.0 °F 26.4 °F 30.0 °F 92% 29.66 in 0.2 mi North 5.8 mph - 0.03 in Fog , Snow Heavy Snow
2:51 PM 32.0 °F 27.5 °F 30.0 °F 92% 29.66 in 0.2 mi North 4.6 mph - 0.07 in Fog , Snow Heavy Snow
3:20 PM 32.0 °F 24.8 °F 30.0 °F 92% 29.66 in 0.2 mi North 8.1 mph - 0.05 in Fog , Snow Heavy Snow
3:51 PM 32.0 °F 24.2 °F 30.0 °F 92% 29.65 in 0.2 mi North 9.2 mph - 0.08 in Fog , Snow Snow
3:59 PM 32.0 °F 24.2 °F 30.0 °F 92% 29.65 in 0.5 mi North 9.2 mph - 0.01 in Fog , Snow Snow
4:51 PM 32.0 °F 24.8 °F 30.0 °F 92% 29.65 in 1.0 mi North 8.1 mph - 0.03 in Snow Light Snow
5:51 PM 30.9 °F 23.5 °F 28.9 °F 92% 29.65 in 1.0 mi North 8.1 mph - 0.02 in Snow Light Snow
6:35 PM 30.9 °F 22.8 °F 28.9 °F 92% 29.64 in 2.0 mi North 9.2 mph - 0.01 in Snow Light Snow
6:49 PM 30.2 °F 22.6 °F 28.4 °F 93% 29.65 in 3.0 mi North 8.1 mph - 0.01 in Snow Light Snow
6:51 PM 30.9 °F 22.2 °F 28.9 °F 92% 29.65 in 3.0 mi North 10.4 mph - 0.01 in Snow Light Snow
6:57 PM 30.9 °F 23.5 °F 28.9 °F 92% 29.65 in 2.5 mi North 8.1 mph - 0.00 in Snow Light Snow
7:13 PM 30.9 °F 22.2 °F 28.9 °F 92% 29.65 in 2.5 mi North 10.4 mph - 0.00 in Snow Light Snow
7:23 PM 30.9 °F 22.2 °F 28.9 °F 92% 29.65 in 2.5 mi NNW 10.4 mph - 0.00 in Snow Light Snow
7:46 PM 30.2 °F 22.6 °F 28.4 °F 93% 29.65 in 3.0 mi North 8.1 mph - 0.00 in Snow Light Snow
7:51 PM 30.9 °F 22.8 °F 28.0 °F 89% 29.65 in 3.0 mi North 9.2 mph - 0.00 in Snow Light Snow
8:51 PM 30.9 °F 23.5 °F 28.0 °F 89% 29.65 in 4.0 mi NNW 8.1 mph - 0.00 in Snow Light Snow
9:51 PM 30.9 °F 22.2 °F 28.0 °F 89% 29.67 in 6.0 mi NNW 10.4 mph - 0.00 in Snow Light Snow
10:51 PM 30.9 °F 23.5 °F 28.0 °F 89% 29.68 in 3.0 mi NNW 8.1 mph - 0.00 in Snow Light Snow
11:13 PM 30.0 °F 21.7 °F 28.0 °F 92% 29.67 in 4.0 mi NNW 9.2 mph - 0.00 in Snow Light Snow
11:51 PM 30.0 °F 23.2 °F 28.0 °F 92% 29.67 in 6.0 mi NNW 6.9 mph - 0.00 in Snow Light Snow